This is the latest recevied weather packets stored in our database for station/object SR3WXA. If no packets are shown the sender has not sent any weather packets the latest 10 day(s).
| Time | Temp. | Humidity | Pressure | Rain* | Wind** | Luminosity | Snow |
|---|---|---|---|---|---|---|---|
| 1777637337 | 21.11° C | 41% | 1027.8 hPa | 0 mm | - | 679 W/m² | - |
| 1777637300 | 21.11° C | 41% | 1027.8 hPa | 0 mm | - | 679 W/m² | - |
| 1777637000 | 21.11° C | 41% | 1027.8 hPa | 0 mm | - | 696 W/m² | - |
| 1777636700 | 20.56° C | 43% | 1027.8 hPa | 0 mm | - | 703 W/m² | - |
| 1777636401 | 20.56° C | 43% | 1027.9 hPa | 0 mm | - | 708 W/m² | - |
| 1777636145 | 20.56° C | 43% | 1027.9 hPa | 0 mm | - | 712 W/m² | - |
| 1777636100 | 20.56° C | 43% | 1027.9 hPa | 0 mm | - | 712 W/m² | - |
| 1777635530 | 20.56° C | 44% | 1028.1 hPa | 0 mm | - | 714 W/m² | - |
| 1777635269 | 20.56° C | 45% | 1028.1 hPa | 0 mm | - | 717 W/m² | - |
| 1777635230 | 20.56° C | 45% | 1028.1 hPa | 0 mm | - | 717 W/m² | - |
| 1777634930 | 20° C | 46% | 1028.1 hPa | 0 mm | - | 717 W/m² | - |
| 1777634630 | 19.44° C | 46% | 1028.1 hPa | 0 mm | - | 717 W/m² | - |
| 1777634330 | 19.44° C | 47% | 1028.1 hPa | 0 mm | - | 715 W/m² | - |
| 1777634077 | 19.44° C | 47% | 1028.3 hPa | 0 mm | - | 701 W/m² | - |
| 1777634030 | 19.44° C | 47% | 1028.3 hPa | 0 mm | - | 701 W/m² | - |
| 1777633780 | 19.44° C | 47% | 1028.3 hPa | 0 mm | - | 679 W/m² | - |
| 1777633730 | 19.44° C | 47% | 1028.3 hPa | 0 mm | - | 679 W/m² | - |
| 1777633430 | 19.44° C | 47% | 1028.3 hPa | 0 mm | - | 649 W/m² | - |
| 1777633130 | 18.89° C | 48% | 1028.2 hPa | 0 mm | - | 617 W/m² | - |
| 1777632830 | 18.89° C | 48% | 1028.4 hPa | 0 mm | - | 575 W/m² | - |
| 1777632356 | 18.89° C | 49% | 1028.3 hPa | 0 mm | - | 517 W/m² | - |
| 1777632313 | 18.89° C | 49% | 1028.3 hPa | 0 mm | - | 517 W/m² | - |
| 1777632012 | 18.89° C | 47% | 1028.4 hPa | 0 mm | - | 508 W/m² | - |
| 1777631814 | 18.89° C | 47% | 1028.4 hPa | 0 mm | - | 494 W/m² | - |
| 1777631712 | 18.89° C | 47% | 1028.4 hPa | 0 mm | - | 494 W/m² | - |
* Rain latest hour (hover to see other rain measurements)
** Current wind speed in m/s (hover to see current wind gust speed)